Location: ????????
(56.1167°N, 38.6333°E)
Time: 21:09:11
(UTC+00:00)

ARIANE 5 R/B - Pass Details

Date: 18 November 2025
Orbit: 746 x 792 km, 98.8° (Epoch: 06 December)

Event Time Altitude Azimuth Distance (km) Brightness Sun altitude
Rises 14:25:11 0° 155° (SSE) 3,183 5.7 -9.9°
Reaches altitude 10° 14:27:27 10° 154° (SSE) 2,264 4.9 -10.2°
Maximum altitude 14:32:25 76° 70° (ENE) 780 2.4 -10.8°
Drops below altitude 10° 14:37:27 10° 345° (NNW) 2,294 4.9 -11.5°
Sets 14:39:46 0° 344° (NNW) 3,228 5.7 -11.8°
